Home   Weather   Fürstenfeldbruck   Past weeks

Flag for Germany Past Weather in Fürstenfeldbruck, Bavaria, Germany — Yesterday and Last 2 Weeks

Now
36 °F

Light rain. Broken clouds.


Feels Like: 36 °F
Forecast: 36 / 43 °F
Wind: 2 mph from North

Location: Oberpfaffenhofen

Current Time: Apr 26, 2017 at 9:47:16 pm

Latest Report: Apr 26, 2017 at 6:50 pm


Visibility: 4 mi

Pressure: 29.83 "Hg (27.96 "Hg at 520m altitude)

Humidity: 93%

Dew Point: 34 °F

Location of FürstenfeldbruckLocation

Past Weather in Fürstenfeldbruck — Graph

°F

Fürstenfeldbruck Temperature Yesterday

Maximum temperature yesterday: 55 °F (at 12:50 pm)
Minimum temperature yesterday: 48 °F (at 6:50 am)
Average temperature yesterday: 51 °F

High & Low Weather Summary for the Past Weeks

 TemperatureHumidityPressure
High63 °F (Apr 12, 4:20 pm)100% (Apr 18, 6:50 am)30.51 "Hg (Apr 18, 6:50 am)
Low25 °F (Apr 21, 6:50 am)32% (Apr 21, 5:20 pm)29.71 "Hg (Apr 25, 5:20 pm)
Average44 °F68%30.10 "Hg
* Reported Apr 11 6:20 pm — Apr 26 6:50 pm, Fürstenfeldbruck, Weather by CustomWeather, © 2017

Note: Actual official high and low records may vary slightly from our data, if they occured in-between our weather recording intervals... More about our weather records

Advertising

Fürstenfeldbruck Weather History for the Previous 24 Hours

Scroll right to see more
 ConditionsComfort  
Time TempWeatherWind HumidityBarometerVisibility
6:50 pm
Wed, Apr 26
36 °FLight rain. Broken clouds.2 mph93%29.83 "Hg4 mi
6:20 pm36 °FLight rain. Broken clouds.5 mph93%29.83 "Hg5 mi
5:50 pm36 °FLight rain. Broken clouds.3 mph93%29.83 "Hg5 mi
5:20 pm37 °FLight rain. Broken clouds.3 mph93%29.83 "Hg5 mi
4:50 pm36 °FLight rain. Partly sunny.2 mph100%29.83 "Hg4 mi
4:20 pm34 °FLight rain. Partly sunny.2 mph100%29.83 "Hg4 mi
3:50 pm34 °FLight snow. Fog.2 mph93%29.83 "Hg3 mi
3:20 pm34 °FLight snow. Fog.5 mph93%29.83 "Hg3 mi
2:50 pm36 °FLight rain. Broken clouds.5 mph93%29.80 "Hg4 mi
2:20 pm36 °FLight rain. Broken clouds.5 mph93%29.80 "Hg4 mi
1:50 pm36 °FLight snow. Fog.5 mph93%29.80 "Hg3 mi
1:20 pm34 °FLight snow. Fog.5 mph100%29.80 "Hg2 mi
12:50 pm34 °FLight snow. Fog.6 mph93%29.80 "Hg2 mi
12:20 pm34 °FLight rain. Low clouds.6 mph100%29.77 "Hg3 mi
11:50 am36 °FLight rain. Low clouds.5 mph93%29.77 "Hg4 mi
11:20 am36 °FLight rain. Low clouds.5 mph93%29.77 "Hg4 mi
10:50 am36 °FLight rain. Low clouds.5 mph93%29.77 "Hg4 mi
10:20 am36 °FLight rain. Low clouds.2 mph93%29.74 "Hg4 mi
9:50 am34 °FLight rain. Low clouds.2 mph100%29.74 "Hg4 mi
9:20 am34 °FLight rain. Low clouds.3 mph100%29.74 "Hg3 mi
8:50 am34 °FLight rain. More clouds than sun.5 mph93%29.74 "Hg3 mi
8:20 am32 °FLight snow. Low clouds.5 mph100%29.74 "Hg2 mi
7:50 am32 °FLight snow. Low clouds.5 mph100%29.74 "Hg2 mi
7:20 am32 °FLight snow. Mostly cloudy.5 mph100%29.74 "Hg1 mi
6:50 am32 °FLight snow. Mostly cloudy.5 mph100%29.74 "Hg2 mi
Weather by CustomWeather, © 2017

See weather overviewHow to use our weather pages